Time,TemperatureF,DewpointF,PressureIn,WindDirection,WindDirectionDegrees,WindSpeedMPH,WindSpeedGustMPH,Humidity,HourlyPrecipIn,Conditions,Clouds,dailyrainin,SoftwareType,DateUTC
2013-04-07 00:00:00,50.0,44.0,30.28,NE,40,18.0,21.0,81,-99.99,,,-99.99,,2013-04-07 04:00:00,
2013-04-07 00:22:00,50.0,44.0,30.28,NE,40,18.0,21.0,81,-99.99,,,-99.99,,2013-04-07 04:22:00,
2013-04-07 00:32:00,50.0,44.0,30.28,NE,40,18.0,21.0,81,-99.99,,,-99.99,,2013-04-07 04:32:00,
2013-04-07 00:42:00,50.0,44.0,30.28,NE,40,18.0,21.0,81,-99.99,,,-99.99,,2013-04-07 04:42:00,
2013-04-07 00:52:00,50.0,44.0,30.28,NE,40,18.0,21.0,81,-99.99,,,-99.99,,2013-04-07 04:52:00,
2013-04-07 01:00:00,49.0,44.0,30.26,NNE,20,10.0,14.0,84,-99.99,,,-99.99,,2013-04-07 05:00:00,
2013-04-07 01:21:00,49.0,44.0,30.26,NNE,20,10.0,14.0,84,-99.99,,,-99.99,,2013-04-07 05:21:00,
2013-04-07 01:32:00,49.0,44.0,30.26,NNE,20,10.0,14.0,84,-99.99,,,-99.99,,2013-04-07 05:32:00,
2013-04-07 01:42:00,49.0,44.0,30.26,NNE,20,10.0,14.0,84,-99.99,,,-99.99,,2013-04-07 05:42:00,
2013-04-07 01:51:00,49.0,44.0,30.26,NNE,20,10.0,14.0,84,-99.99,,,-99.99,,2013-04-07 05:51:00,
2013-04-07 02:00:00,49.0,45.0,30.25,NNE,20,11.0,13.0,86,-99.99,,,-99.99,,2013-04-07 06:00:00,
2013-04-07 02:21:00,49.0,45.0,30.25,NNE,20,11.0,13.0,86,-99.99,,,-99.99,,2013-04-07 06:21:00,
2013-04-07 02:31:00,49.0,45.0,30.25,NNE,20,11.0,13.0,86,-99.99,,,-99.99,,2013-04-07 06:31:00,
2013-04-07 02:42:00,49.0,45.0,30.25,NNE,20,11.0,13.0,86,-99.99,,,-99.99,,2013-04-07 06:42:00,
2013-04-07 02:52:00,49.0,45.0,30.25,NNE,20,11.0,13.0,86,-99.99,,,-99.99,,2013-04-07 06:52:00,
2013-04-07 03:00:00,48.0,47.0,30.23,NNE,20,10.0,13.0,97,-99.99,,,-99.99,,2013-04-07 07:00:00,
2013-04-07 03:21:00,48.0,47.0,30.23,NNE,20,10.0,13.0,97,-99.99,,,-99.99,,2013-04-07 07:21:00,
2013-04-07 03:31:00,48.0,47.0,30.23,NNE,20,10.0,13.0,97,-99.99,,,-99.99,,2013-04-07 07:31:00,
2013-04-07 03:41:00,48.0,47.0,30.23,NNE,20,10.0,13.0,97,-99.99,,,-99.99,,2013-04-07 07:41:00,
2013-04-07 03:51:00,48.0,47.0,30.23,NNE,20,10.0,13.0,97,-99.99,,,-99.99,,2013-04-07 07:51:00,
2013-04-07 04:00:00,49.0,48.0,30.23,NNE,20,11.0,13.0,96,-99.99,,,-99.99,,2013-04-07 08:00:00,
2013-04-07 04:32:00,49.0,48.0,30.23,NNE,20,11.0,13.0,96,-99.99,,,-99.99,,2013-04-07 08:32:00,
2013-04-07 04:42:00,49.0,48.0,30.23,NNE,20,11.0,13.0,96,-99.99,,,-99.99,,2013-04-07 08:42:00,
2013-04-07 04:51:00,49.0,48.0,30.23,NNE,20,11.0,13.0,96,-99.99,,,-99.99,,2013-04-07 08:51:00,
2013-04-07 05:00:00,50.0,50.0,30.22,NE,40,13.0,15.0,98,-99.99,,,-99.99,,2013-04-07 09:00:00,
2013-04-07 05:21:00,50.0,50.0,30.22,NE,40,13.0,15.0,98,-99.99,,,-99.99,,2013-04-07 09:21:00,
2013-04-07 05:33:00,50.0,50.0,30.22,NE,40,13.0,15.0,98,-99.99,,,-99.99,,2013-04-07 09:33:00,
2013-04-07 05:42:00,50.0,50.0,30.22,NE,40,13.0,15.0,98,-99.99,,,-99.99,,2013-04-07 09:42:00,
2013-04-07 05:52:00,50.0,50.0,30.22,NE,40,13.0,15.0,98,-99.99,,,-99.99,,2013-04-07 09:52:00,
2013-04-07 06:00:00,51.0,49.0,30.23,NE,40,14.0,16.0,93,-99.99,,,-99.99,,2013-04-07 10:00:00,
2013-04-07 06:22:00,51.0,49.0,30.23,NE,40,14.0,16.0,93,-99.99,,,-99.99,,2013-04-07 10:22:00,
2013-04-07 06:32:00,51.0,49.0,30.23,NE,40,14.0,16.0,93,-99.99,,,-99.99,,2013-04-07 10:32:00,
2013-04-07 06:42:00,51.0,49.0,30.23,NE,40,14.0,16.0,93,-99.99,,,-99.99,,2013-04-07 10:42:00,
2013-04-07 06:52:00,51.0,49.0,30.23,NE,40,14.0,16.0,93,-99.99,,,-99.99,,2013-04-07 10:52:00,
2013-04-07 07:00:00,51.0,50.0,30.25,NE,40,13.0,14.0,94,-99.99,,,-99.99,,2013-04-07 11:00:00,
2013-04-07 07:21:00,51.0,50.0,30.25,NE,40,13.0,14.0,94,-99.99,,,-99.99,,2013-04-07 11:21:00,
2013-04-07 07:32:00,51.0,50.0,30.25,NE,40,13.0,14.0,94,-99.99,,,-99.99,,2013-04-07 11:32:00,
2013-04-07 07:42:00,51.0,50.0,30.25,NE,40,13.0,14.0,94,-99.99,,,-99.99,,2013-04-07 11:42:00,
2013-04-07 07:52:00,51.0,50.0,30.25,NE,40,13.0,14.0,94,-99.99,,,-99.99,,2013-04-07 11:52:00,
2013-04-07 08:00:00,52.0,50.0,30.26,NNE,30,11.0,13.0,94,-99.99,,,-99.99,,2013-04-07 12:00:00,
2013-04-07 08:21:00,52.0,50.0,30.26,NNE,30,11.0,13.0,94,-99.99,,,-99.99,,2013-04-07 12:21:00,
2013-04-07 08:32:00,52.0,50.0,30.26,NNE,30,11.0,13.0,94,-99.99,,,-99.99,,2013-04-07 12:32:00,
2013-04-07 08:42:00,52.0,50.0,30.26,NNE,30,11.0,13.0,94,-99.99,,,-99.99,,2013-04-07 12:42:00,
2013-04-07 08:52:00,52.0,50.0,30.26,NNE,30,11.0,13.0,94,-99.99,,,-99.99,,2013-04-07 12:52:00,
2013-04-07 09:00:00,53.0,50.0,30.27,NE,40,11.0,13.0,89,-99.99,,,-99.99,,2013-04-07 13:00:00,
2013-04-07 09:21:00,53.0,50.0,30.27,NE,40,11.0,13.0,89,-99.99,,,-99.99,,2013-04-07 13:21:00,
2013-04-07 09:31:00,53.0,50.0,30.27,NE,40,11.0,13.0,89,-99.99,,,-99.99,,2013-04-07 13:31:00,
2013-04-07 09:41:00,53.0,50.0,30.27,NE,40,11.0,13.0,89,-99.99,,,-99.99,,2013-04-07 13:41:00,
2013-04-07 09:52:00,53.0,50.0,30.27,NE,40,11.0,13.0,89,-99.99,,,-99.99,,2013-04-07 13:52:00,
2013-04-07 10:00:00,53.0,51.0,30.27,NE,50,9.0,10.0,93,-99.99,,,-99.99,,2013-04-07 14:00:00,
2013-04-07 10:32:00,53.0,51.0,30.27,NE,50,9.0,10.0,93,-99.99,,,-99.99,,2013-04-07 14:32:00,
2013-04-07 10:42:00,53.0,51.0,30.27,NE,50,9.0,10.0,93,-99.99,,,-99.99,,2013-04-07 14:42:00,
2013-04-07 10:52:00,53.0,51.0,30.27,NE,50,9.0,10.0,93,-99.99,,,-99.99,,2013-04-07 14:52:00,
2013-04-07 11:00:00,54.0,53.0,30.28,NE,50,6.0,7.0,94,-99.99,,,-99.99,,2013-04-07 15:00:00,
2013-04-07 11:21:00,54.0,53.0,30.28,NE,50,6.0,7.0,94,-99.99,,,-99.99,,2013-04-07 15:21:00,
2013-04-07 11:32:00,54.0,53.0,30.28,NE,50,6.0,7.0,94,-99.99,,,-99.99,,2013-04-07 15:32:00,
2013-04-07 11:43:00,54.0,53.0,30.28,NE,50,6.0,7.0,94,-99.99,,,-99.99,,2013-04-07 15:43:00,
2013-04-07 11:53:00,54.0,53.0,30.28,NE,50,6.0,7.0,94,-99.99,,,-99.99,,2013-04-07 15:53:00,
2013-04-07 12:00:00,55.0,53.0,30.28,NE,50,7.0,7.0,91,-99.99,,,-99.99,,2013-04-07 16:00:00,
2013-04-07 12:23:00,55.0,53.0,30.28,NE,50,7.0,7.0,91,-99.99,,,-99.99,,2013-04-07 16:23:00,
2013-04-07 12:32:00,55.0,53.0,30.28,NE,50,7.0,7.0,91,-99.99,,,-99.99,,2013-04-07 16:32:00,
2013-04-07 12:42:00,55.0,53.0,30.28,NE,50,7.0,7.0,91,-99.99,,,-99.99,,2013-04-07 16:42:00,
2013-04-07 12:52:00,55.0,53.0,30.28,NE,50,7.0,7.0,91,-99.99,,,-99.99,,2013-04-07 16:52:00,
2013-04-07 13:00:00,57.0,53.0,30.26,NE,50,6.0,7.0,85,-99.99,,,-99.99,,2013-04-07 17:00:00,
2013-04-07 13:22:00,57.0,53.0,30.26,NE,50,6.0,7.0,85,-99.99,,,-99.99,,2013-04-07 17:22:00,
2013-04-07 13:32:00,57.0,53.0,30.26,NE,50,6.0,7.0,85,-99.99,,,-99.99,,2013-04-07 17:32:00,
2013-04-07 13:42:00,57.0,53.0,30.26,NE,50,6.0,7.0,85,-99.99,,,-99.99,,2013-04-07 17:42:00,
2013-04-07 13:52:00,57.0,53.0,30.26,NE,50,6.0,7.0,85,-99.99,,,-99.99,,2013-04-07 17:52:00,
2013-04-07 14:00:00,58.0,53.0,30.24,ENE,70,3.0,5.0,82,-99.99,,,-99.99,,2013-04-07 18:00:00,
2013-04-07 14:21:00,58.0,53.0,30.24,ENE,70,3.0,5.0,82,-99.99,,,-99.99,,2013-04-07 18:21:00,
2013-04-07 14:32:00,58.0,53.0,30.24,ENE,70,3.0,5.0,82,-99.99,,,-99.99,,2013-04-07 18:32:00,
2013-04-07 14:42:00,58.0,53.0,30.24,ENE,70,3.0,5.0,82,-99.99,,,-99.99,,2013-04-07 18:42:00,
2013-04-07 14:51:00,58.0,53.0,30.24,ENE,70,3.0,5.0,82,-99.99,,,-99.99,,2013-04-07 18:51:00,
2013-04-07 15:00:00,59.0,55.0,30.22,East,90,5.0,5.0,86,-99.99,,,-99.99,,2013-04-07 19:00:00,
2013-04-07 15:21:00,59.0,55.0,30.22,East,90,5.0,5.0,86,-99.99,,,-99.99,,2013-04-07 19:21:00,
2013-04-07 15:31:00,59.0,55.0,30.22,East,90,5.0,5.0,86,-99.99,,,-99.99,,2013-04-07 19:31:00,
2013-04-07 15:42:00,59.0,55.0,30.22,East,90,5.0,5.0,86,-99.99,,,-99.99,,2013-04-07 19:42:00,
2013-04-07 15:52:00,59.0,55.0,30.22,East,90,5.0,5.0,86,-99.99,,,-99.99,,2013-04-07 19:52:00,
2013-04-07 16:00:00,60.0,56.0,30.20,East,100,5.0,5.0,89,-99.99,,,-99.99,,2013-04-07 20:00:00,
2013-04-07 16:21:00,60.0,56.0,30.20,East,100,5.0,5.0,89,-99.99,,,-99.99,,2013-04-07 20:21:00,
2013-04-07 16:31:00,60.0,56.0,30.20,East,100,5.0,5.0,89,-99.99,,,-99.99,,2013-04-07 20:31:00,
2013-04-07 16:42:00,60.0,56.0,30.20,East,100,5.0,5.0,89,-99.99,,,-99.99,,2013-04-07 20:42:00,
2013-04-07 16:51:00,60.0,56.0,30.20,East,100,5.0,5.0,89,-99.99,,,-99.99,,2013-04-07 20:51:00,
2013-04-07 17:00:00,60.0,56.0,30.19,SE,140,5.0,6.0,85,-99.99,,,-99.99,,2013-04-07 21:00:00,
2013-04-07 17:21:00,60.0,56.0,30.19,SE,140,5.0,6.0,85,-99.99,,,-99.99,,2013-04-07 21:21:00,
2013-04-07 17:33:00,60.0,56.0,30.19,SE,140,5.0,6.0,85,-99.99,,,-99.99,,2013-04-07 21:33:00,
2013-04-07 17:42:00,60.0,56.0,30.19,SE,140,5.0,6.0,85,-99.99,,,-99.99,,2013-04-07 21:42:00,
2013-04-07 17:52:00,60.0,56.0,30.19,SE,140,5.0,6.0,85,-99.99,,,-99.99,,2013-04-07 21:52:00,
2013-04-07 18:00:00,60.0,53.0,30.19,South,170,10.0,11.0,77,-99.99,,,-99.99,,2013-04-07 22:00:00,
2013-04-07 18:22:00,60.0,53.0,30.19,South,170,10.0,11.0,77,-99.99,,,-99.99,,2013-04-07 22:22:00,
2013-04-07 18:32:00,60.0,53.0,30.19,South,170,10.0,11.0,77,-99.99,,,-99.99,,2013-04-07 22:32:00,
2013-04-07 18:42:00,60.0,53.0,30.19,South,170,10.0,11.0,77,-99.99,,,-99.99,,2013-04-07 22:42:00,
2013-04-07 18:52:00,60.0,53.0,30.19,South,170,10.0,11.0,77,-99.99,,,-99.99,,2013-04-07 22:52:00,
2013-04-07 19:00:00,59.0,53.0,30.19,South,170,9.0,10.0,82,-99.99,,,-99.99,,2013-04-07 23:00:00,
2013-04-07 19:21:00,59.0,53.0,30.19,South,170,9.0,10.0,82,-99.99,,,-99.99,,2013-04-07 23:21:00,
2013-04-07 19:31:00,59.0,53.0,30.19,South,170,9.0,10.0,82,-99.99,,,-99.99,,2013-04-07 23:31:00,
2013-04-07 19:42:00,59.0,53.0,30.19,South,170,9.0,10.0,82,-99.99,,,-99.99,,2013-04-07 23:42:00,
2013-04-07 19:52:00,59.0,53.0,30.19,South,170,9.0,10.0,82,-99.99,,,-99.99,,2013-04-07 23:52:00,
2013-04-07 20:00:00,59.0,53.0,30.18,SSE,160,10.0,10.0,81,-99.99,,,-99.99,,2013-04-08 00:00:00,
2013-04-07 20:22:00,59.0,53.0,30.18,SSE,160,10.0,10.0,81,-99.99,,,-99.99,,2013-04-08 00:22:00,
2013-04-07 20:31:00,59.0,53.0,30.18,SSE,160,10.0,10.0,81,-99.99,,,-99.99,,2013-04-08 00:31:00,
2013-04-07 20:41:00,59.0,53.0,30.18,SSE,160,10.0,10.0,81,-99.99,,,-99.99,,2013-04-08 00:41:00,
2013-04-07 20:51:00,59.0,53.0,30.18,SSE,160,10.0,10.0,81,-99.99,,,-99.99,,2013-04-08 00:51:00,
2013-04-07 21:00:00,59.0,54.0,30.20,South,170,9.0,10.0,82,-99.99,,,-99.99,,2013-04-08 01:00:00,
2013-04-07 21:22:00,59.0,54.0,30.20,South,170,9.0,10.0,82,-99.99,,,-99.99,,2013-04-08 01:22:00,
2013-04-07 21:32:00,59.0,54.0,30.20,South,170,9.0,10.0,82,-99.99,,,-99.99,,2013-04-08 01:32:00,
2013-04-07 21:42:00,59.0,54.0,30.20,South,170,9.0,10.0,82,-99.99,,,-99.99,,2013-04-08 01:42:00,
2013-04-07 22:00:00,58.0,54.0,30.21,South,180,7.0,8.0,87,-99.99,,,-99.99,,2013-04-08 02:00:00,
2013-04-07 22:21:00,58.0,54.0,30.21,South,180,7.0,8.0,87,-99.99,,,-99.99,,2013-04-08 02:21:00,
2013-04-07 22:32:00,58.0,54.0,30.21,South,180,7.0,8.0,87,-99.99,,,-99.99,,2013-04-08 02:32:00,
2013-04-07 22:42:00,58.0,54.0,30.21,South,180,7.0,8.0,87,-99.99,,,-99.99,,2013-04-08 02:42:00,
2013-04-07 23:00:00,58.0,54.0,30.21,South,180,9.0,9.0,87,-99.99,,,-99.99,,2013-04-08 03:00:00,
2013-04-07 23:32:00,58.0,54.0,30.21,South,180,9.0,9.0,87,-99.99,,,-99.99,,2013-04-08 03:32:00,
2013-04-07 23:42:00,58.0,54.0,30.21,South,180,9.0,9.0,87,-99.99,,,-99.99,,2013-04-08 03:42:00,
2013-04-07 23:53:00,58.0,54.0,30.21,South,180,9.0,9.0,87,-99.99,,,-99.99,,2013-04-08 03:53:00,